This is the latest recevied weather packets stored in our database for station/object W6ORV. If no packets are shown the sender has not sent any weather packets the latest 10 day(s).
| Time | Temp. | Humidity | Pressure | Rain* | Wind** | Luminosity | Snow |
|---|---|---|---|---|---|---|---|
| 1777601887 | 23.33° C | 47% | 4295.9 hPa | 0 mm | - | 24 W/m² | - |
| 1777601582 | 23.89° C | 47% | 4296 hPa | 0 mm | - | 28 W/m² | - |
| 1777601278 | 24.44° C | 46% | 4295.9 hPa | 0 mm | - | 32 W/m² | - |
| 1777600975 | 24.44° C | 47% | 4295.9 hPa | 0 mm | - | 37 W/m² | - |
| 1777600671 | 24.44° C | 46% | 4295.7 hPa | 0 mm | - | 42 W/m² | - |
| 1777600367 | 25° C | 45% | 4295.5 hPa | 0 mm | - | 42 W/m² | - |
| 1777600063 | 24.44° C | 45% | 4295.7 hPa | 0 mm | - | 48 W/m² | - |
| 1777599759 | 25° C | 44% | 4295.8 hPa | 0 mm | - | 67 W/m² | - |
| 1777599455 | 25.56° C | 44% | 4295.6 hPa | 0 mm | - | 44 W/m² | - |
| 1777599153 | 25.56° C | 43% | 4295.7 hPa | 0 mm | - | 46 W/m² | - |
| 1777598852 | 26.11° C | 43% | 4295.8 hPa | 0 mm | - | 47 W/m² | - |
| 1777598552 | 26.11° C | 43% | 4295.5 hPa | 0 mm | - | 49 W/m² | - |
| 1777598246 | 26.11° C | 43% | 4295.6 hPa | 0 mm | - | 54 W/m² | - |
| 1777597945 | 26.67° C | 43% | 4295.5 hPa | 0 mm | - | 174 W/m² | - |
| 1777597644 | 26.67° C | 42% | 4295.5 hPa | 0 mm | - | 188 W/m² | - |
| 1777597340 | 26.67° C | 43% | 4295.6 hPa | 0 mm | - | 201 W/m² | - |
| 1777597035 | 26.67° C | 43% | 4295.4 hPa | 0 mm | - | 220 W/m² | - |
| 1777596732 | 26.67° C | 42% | 4295.4 hPa | 0 mm | - | 222 W/m² | - |
| 1777596429 | 26.67° C | 42% | 4295.4 hPa | 0 mm | - | 247 W/m² | - |
| 1777596126 | 26.67° C | 42% | 4295.5 hPa | 0 mm | - | 268 W/m² | - |
| 1777595822 | 26.67° C | 41% | 4295.4 hPa | 0 mm | - | 284 W/m² | - |
| 1777595517 | 27.22° C | 41% | 4295.4 hPa | 0 mm | - | 291 W/m² | - |
| 1777595214 | 27.78° C | 40% | 4295.4 hPa | 0 mm | - | 318 W/m² | - |
| 1777594909 | 27.78° C | 38% | 4295.5 hPa | 0 mm | - | 353 W/m² | - |
| 1777594606 | 27.78° C | 40% | 4295.4 hPa | 0 mm | - | 374 W/m² | - |
* Rain latest hour (hover to see other rain measurements)
** Current wind speed in m/s (hover to see current wind gust speed)